Regional Weather Roundup
Issued by NWS

Home | Current Version | Previous Version | Graphics & Text | Print | Product List | Glossary On
Versions: 1 2 3 4 5 6 7 8 9 10 11 12 13 14 15 16 17 18 19 20 21 22 23 24 25 26 27 28 29 30 31 32 33 34 35 36 37 38 39 40 41 42 43 44 45 46 47 48 49 50
000
ASUS43 KBIS 281110
RWRND

NORTH DAKOTA REGIONAL WEATHER ROUNDUP
NATIONAL WEATHER SERVICE BISMARCK ND
600 AM CDT TUE JUL 28 2015

NOTE: "FAIR" INDICATES FEW OR NO CLOUDS BELOW 12,000 FEET WITH NO
SIGNIFICANT WEATHER AND/OR OBSTRUCTIONS TO VISIBILITY.


NDZ001>003-009>011-017-281200-
NORTHWEST NORTH DAKOTA

CITY           SKY/WX    TMP DP  RH WIND       PRES   REMARKS
WILLISTON      MOCLDY    60  54  80 SW24G35   29.57F
MINOT          CLOUDY    65  56  72 SW15G25   29.58R
MINOT AFB      CLOUDY    65  61  88 SW14G22   29.56R
$$

NDZ018>021-031>035-040>046-281200-
SOUTHWEST NORTH DAKOTA

CITY           SKY/WX    TMP DP  RH WIND       PRES   REMARKS
BISMARCK       PTCLDY    62  56  80 W15       29.69R
DICKINSON      PTCLDY    56  50  80 W25G37    29.71R
GARRISON         N/A     63  56  78 W21G30    29.63R
HETTINGER ARPT CLEAR     55  48  77 W22G32    29.82R
$$

NDZ004>008-012>016-024-026-027-054-281200-
NORTHEAST NORTH DAKOTA

CITY           SKY/WX    TMP DP  RH WIND       PRES   REMARKS
GRAND FORKS    CLOUDY    73  70  88 SE25G37   29.57S
GRND FRKS AFB  CLOUDY    75  71  87 S21G36    29.57S
DEVILS LAKE    CLOUDY    72  63  73 S8        29.55S
$$

NDZ022-023-025-028>030-036>039-047>053-281200-
SOUTHEAST NORTH DAKOTA

CITY           SKY/WX    TMP DP  RH WIND       PRES   REMARKS
FARGO          LGT RAIN  71  69  93 E16       29.55F
JAMESTOWN      CLOUDY    68  63  84 S9        29.63R
$$



USA.gov is the U.S. government's official web portal to all federal, state and local government web resources and services.